CW8399 Weather Reports


Display with metric or nautical units.
time (UTC)temp
F
wind
direction
speed
MPH
gust
MPH
rain 1hr
in
rain 24hr
in
rain mn
in
humidity
%
barometer
mb
20260505235020 80 349 1.0 8.0 0.00 0.00 0.00
20260505234015 80 138 3.0 7.0 0.00 0.00 0.00
20260505233519 79 0 2.0 6.0 0.00 0.00 0.00
20260505233022 79 0 0.0 4.0 0.00 0.00 0.00
20260505232513 79 242 1.0 5.0 0.00 0.00 0.00
20260505232017 79 359 2.0 5.0 0.00 0.00 0.00
20260505231519 80 353 0.0 4.0 0.00 0.00 0.00
20260505231002 79 0 2.0 7.0 0.00 0.00 0.00
20260505225508 80 309 4.0 8.0 0.00 0.00 0.00
20260505225010 80 348 2.0 8.0 0.00 0.00 0.00
20260505223504 80 358 3.0 11.0 0.00 0.00 0.00
20260505223006 79 352 1.0 11.0 0.00 0.00 0.00
20260505222505 79 346 4.0 11.0 0.00 0.00 0.00
20260505222026 79 0 5.0 9.0 0.00 0.00 0.00
20260505221521 79 358 2.0 9.0 0.00 0.00 0.00
20260505221001 79 0 4.0 8.0 0.00 0.00 0.00
20260505214504 79 358 8.0 12.0 0.00 0.00 0.00
20260505214006 79 359 4.0 9.0 0.00 0.00 0.00
20260505213506 78 353 2.0 9.0 0.00 0.00 0.00
20260505212012 79 202 0.0 10.0 0.00 0.00 0.00
20260505211509 79 353 5.0 10.0 0.00 0.00 0.00
20260505211010 79 359 3.0 13.0 0.00 0.00 0.00
20260505210013 79 357 2.0 17.0 0.00 0.00 0.00
20260505205514 79 325 5.0 22.0 0.00 0.00 0.00
20260505205014 79 1 8.0 22.0 0.00 0.00 0.00
20260505204506 78 357 3.0 13.0 0.00 0.00 0.00
20260505204006 79 0 1.0 13.0 0.00 0.00 0.00
20260505203508 78 350 0.0 12.0 0.00 0.00 0.00
20260505203008 78 0 3.0 12.0 0.00 0.00 0.00
20260505202505 78 358 6.0 11.0 0.00 0.00 0.00
20260505202026 78 347 5.0 10.0 0.00 0.00 0.00
20260505201517 78 358 1.0 9.0 0.00 0.00 0.00
20260505201020 78 337 3.0 9.0 0.00 0.00 0.00
20260505200506 78 0 2.0 9.0 0.00 0.00 0.00
20260505200008 78 359 4.0 10.0 0.00 0.00 0.00
20260505195507 78 0 3.0 11.0 0.00 0.00 0.00
20260505195012 77 347 3.0 11.0 0.00 0.00 0.00
20260505194503 77 351 5.0 14.0 0.00 0.00 0.00
20260505193508 77 355 6.0 12.0 0.00 0.00 0.00
20260505193010 77 357 6.0 16.0 0.00 0.00 0.00
20260505192015 76 356 2.0 9.0 0.00 0.00 0.00
20260505191507 76 357 4.0 8.0 0.00 0.00 0.00
20260505191009 76 323 0.0 8.0 0.00 0.00 0.00
20260505190508 75 351 2.0 9.0 0.00 0.00 0.00
20260505190009 75 357 6.0 9.0 0.00 0.00 0.00
20260505185510 75 320 1.0 7.0 0.00 0.00 0.00
20260505185015 75 342 1.0 7.0 0.00 0.00 0.00
20260505184611 75 356 2.0 7.0 0.00 0.00 0.00
20260505184004 75 0 1.0 9.0 0.00 0.00 0.00
20260505183505 74 0 1.0 12.0 0.00 0.00 0.00
20260505183008 74 0 3.0 15.0 0.00 0.00 0.00
20260505182509 74 359 2.0 10.0 0.00 0.00 0.00
20260505182012 74 345 3.0 11.0 0.00 0.00 0.00
20260505181504 73 340 5.0 11.0 0.00 0.00 0.00
20260505181007 73 337 0.0 7.0 0.00 0.00 0.00
20260505180509 73 0 2.0 13.0 0.00 0.00 0.00
20260505180013 73 7 4.0 13.0 0.00 0.00 0.00
20260505175512 72 0 2.0 6.0 0.00 0.00 0.00
20260505174506 72 0 1.0 9.0 0.00 0.00 0.00
20260505174005 71 4 5.0 8.0 0.00 0.00 0.00
20260505173506 71 0 0.0 6.0 0.00 0.00 0.00
20260505173011 70 0 0.0 6.0 0.00 0.00 0.00
20260505172515 70 356 0.0 6.0 0.00 0.00 0.00
20260505171512 70 0 3.0 7.0 0.00 0.00 0.00
20260505171012 70 359 3.0 7.0 0.00 0.00 0.00
20260505170512 70 0 2.0 6.0 0.00 0.00 0.00
20260505165517 69 0 2.0 7.0 0.00 0.00 0.00
20260505165019 69 17 2.0 8.0 0.00 0.00 0.00
20260505164521 68 359 5.0 8.0 0.00 0.00 0.00
20260505164013 68 0 0.0 6.0 0.00 0.00 0.00
20260505162957 67 6 1.0 6.0 0.00 0.00 0.00
20260505162026 66 135 0.0 6.0 0.00 0.00 0.00
20260505161518 66 106 2.0 6.0 0.00 0.00 0.00
20260505161002 65 0 0.0 5.0 0.00 0.00 0.00
20260505160505 65 0 0.0 5.0 0.00 0.00 0.00
20260505153018 64 281 2.0 6.0 0.00 0.00 0.00
20260505152519 64 0 0.0 4.0 0.00 0.00 0.00
20260505152020 64 0 2.0 4.0 0.00 0.00 0.00
20260505151512 64 0 2.0 4.0 0.00 0.00 0.00
20260505151013 64 0 1.0 5.0 0.00 0.00 0.00
20260505150515 64 355 1.0 5.0 0.00 0.00 0.00
20260505140513 61 313 0.0 6.0 0.00 0.00 0.00
20260505125030 60 0 0.0 2.0 0.00 0.00 0.00
20260505124503 60 0 0.0 3.0 0.00 0.00 0.00
20260505124005 60 0 1.0 3.0 0.00 0.00 0.00
20260505123009 60 0 0.0 2.0 0.00 0.00 0.00
20260505122514 60 0 0.0 2.0 0.00 0.00 0.00
20260505122021 60 354 0.0 1.0 0.00 0.00 0.00
20260505121511 60 0 0.0 1.0 0.00 0.00 0.00
20260505121009 60 269 0.0 0.0 0.00 0.00 0.00
20260505120510 60 319 0.0 1.0 0.00 0.00 0.00
20260505120010 61 0 0.0 1.0 0.00 0.00 0.00
20260505115510 61 0 0.0 2.0 0.00 0.00 0.00
20260505115010 61 0 0.0 2.0 0.00 0.00 0.00
20260505114503 61 0 0.0 6.0 0.00 0.00 0.00
20260505114001 61 0 1.0 6.0 0.00 0.00 0.00
20260505113007 62 0 0.0 6.0 0.00 0.00 0.00
20260505112508 62 333 3.0 8.0 0.00 0.00 0.00
20260505112011 62 356 2.0 6.0 0.00 0.00 0.00
20260505111506 62 355 0.0 4.0 0.00 0.00 0.00
20260505111011 62 304 0.0 5.0 0.00 0.00 0.00
20260505110504 62 0 1.0 10.0 0.00 0.00 0.00
20260505102011 63 0 1.0 8.0 0.00 0.00 0.00
20260505101502 63 347 0.0 9.0 0.00 0.00 0.00
20260505101018 63 349 4.0 10.0 0.00 0.00 0.00
20260505100519 63 359 3.0 10.0 0.00 0.00 0.00
20260505100005 63 356 1.0 5.0 0.00 0.00 0.00
20260505095507 63 0 1.0 4.0 0.00 0.00 0.00
20260505095007 64 354 0.0 4.0 0.00 0.00 0.00
20260505094530 64 0 2.0 5.0 0.00 0.00 0.00
20260505093502 64 358 2.0 7.0 0.00 0.00 0.00
20260505093003 64 358 2.0 7.0 0.00 0.00 0.00
20260505092503 64 0 0.0 6.0 0.00 0.00 0.00
20260505092022 64 8 0.0 5.0 0.00 0.00 0.00
20260505091514 64 343 1.0 5.0 0.00 0.00 0.00
20260505091013 64 355 2.0 5.0 0.00 0.00 0.00
20260505090514 65 0 0.0 6.0 0.00 0.00 0.00
20260505090012 65 337 3.0 7.0 0.00 0.00 0.00
20260505085515 65 339 2.0 8.0 0.00 0.00 0.00
20260505085019 65 274 1.0 8.0 0.00 0.00 0.00
20260505084017 65 0 2.0 6.0 0.00 0.00 0.00
20260505083519 65 357 2.0 8.0 0.00 0.00 0.00
20260505083019 65 359 0.0 5.0 0.00 0.00 0.00
20260505082519 65 0 0.0 6.0 0.00 0.00 0.00
20260505082019 65 0 2.0 6.0 0.00 0.00 0.00
20260505081013 65 0 0.0 1.0 0.00 0.00 0.00
20260505080517 65 0 0.0 1.0 0.00 0.00 0.00
20260505080017 66 0 0.0 1.0 0.00 0.00 0.00
20260505075518 66 0 0.0 3.0 0.00 0.00 0.00
20260505074015 67 0 1.0 8.0 0.00 0.00 0.00
20260505073516 67 0 1.0 7.0 0.00 0.00 0.00
20260505073016 67 0 2.0 7.0 0.00 0.00 0.00
20260505072516 67 0 2.0 8.0 0.00 0.00 0.00
20260505072021 67 351 3.0 8.0 0.00 0.00 0.00
20260505071514 67 359 2.0 6.0 0.00 0.00 0.00
20260505071013 67 0 1.0 10.0 0.00 0.00 0.00
20260505070514 67 358 1.0 10.0 0.00 0.00 0.00
20260505070013 68 349 1.0 10.0 0.00 0.00 0.00
20260505065515 68 0 2.0 10.0 0.00 0.00 0.00
20260505065016 68 0 5.0 12.0 0.00 0.00 0.00
20260505064012 68 0 7.0 18.0 0.00 0.00 0.00
20260505063514 68 0 6.0 13.0 0.00 0.00 0.00
20260505063013 68 328 8.0 14.0 0.00 0.00 0.00
20260505062512 68 0 10.0 14.0 0.00 0.00 0.00
20260505062014 69 359 8.0 13.0 0.00 0.00 0.00
20260505061507 69 359 3.0 16.0 0.00 0.00 0.00
20260505061012 69 0 7.0 16.0 0.00 0.00 0.00
20260505060512 69 0 9.0 14.0 0.00 0.00 0.00
20260505060013 69 359 8.0 13.0 0.00 0.00 0.00
20260505055513 69 359 2.0 8.0 0.00 0.00 0.00
20260505054508 70 0 3.0 7.0 0.00 0.00 0.00
20260505054012 70 358 1.0 11.0 0.00 0.00 0.00
20260505053513 70 359 6.0 11.0 0.00 0.00 0.00
20260505053014 70 0 4.0 12.0 0.00 0.00 0.00
20260505052513 70 0 5.0 13.0 0.00 0.00 0.00
20260505052015 70 359 5.0 13.0 0.00 0.00 0.00
20260505051505 71 0 4.0 13.0 0.00 0.00 0.00
20260505050507 71 0 2.0 11.0 0.00 0.00 0.00
20260505041005 73 359 7.0 20.0 0.00 0.00 0.00
20260505040505 73 0 8.0 20.0 0.00 0.00 0.00
20260505040005 73 0 13.0 19.0 0.00 0.00 0.00
20260505035505 73 359 10.0 19.0 0.00 0.00 0.00
20260505034500 73 358 13.0 20.0 0.00 0.00 0.00
20260505034006 74 358 10.0 19.0 0.00 0.00 0.00
20260505033507 74 0 12.0 19.0 0.00 0.00 0.00
20260505033011 74 0 7.0 15.0 0.00 0.00 0.00
20260505032514 74 359 11.0 15.0 0.00 0.00 0.00
20260505032016 74 355 7.0 14.0 0.00 0.00 0.00
20260505031507 74 350 6.0 14.0 0.00 0.00 0.00
20260505031009 74 355 7.0 14.0 0.00 0.00 0.00
20260505030510 75 0 6.0 14.0 0.00 0.00 0.00
20260505030013 75 0 6.0 14.0 0.00 0.00 0.00
20260505025010 75 352 6.0 15.0 0.00 0.00 0.00
20260505024512 75 353 7.0 14.0 0.00 0.00 0.00
20260505024011 75 0 8.0 14.0 0.00 0.00 0.00
20260505023511 76 351 6.0 18.0 0.00 0.00 0.00
20260505023016 76 359 7.0 18.0 0.00 0.00 0.00
20260505022515 76 356 7.0 17.0 0.00 0.00 0.00
20260505022017 76 0 12.0 17.0 0.00 0.00 0.00
20260505021508 77 356 9.0 17.0 0.00 0.00 0.00
20260505021007 77 354 10.0 20.0 0.00 0.00 0.00
20260505020509 77 357 8.0 21.0 0.00 0.00 0.00
20260505020009 78 355 10.0 21.0 0.00 0.00 0.00
20260505015509 78 359 10.0 16.0 0.00 0.00 0.00
20260505015014 78 359 5.0 16.0 0.00 0.00 0.00
20260505014009 79 0 10.0 19.0 0.00 0.00 0.00
20260505013511 79 342 10.0 19.0 0.00 0.00 0.00
20260505012015 80 0 9.0 19.0 0.00 0.00 0.00
20260505011506 80 349 8.0 16.0 0.00 0.00 0.00
20260505011011 80 357 5.0 16.0 0.00 0.00 0.00
20260505010513 80 357 6.0 17.0 0.00 0.00 0.00
20260505004524 80 359 5.0 16.0 0.00 0.00 0.00
20260505004014 80 359 8.0 18.0 0.00 0.00 0.00
20260505003514 80 0 9.0 18.0 0.00 0.00 0.00
20260505003015 80 352 8.0 15.0 0.00 0.00 0.00
20260505002517 79 353 5.0 18.0 0.00 0.00 0.00
20260505002019 79 0 10.0 18.0 0.00 0.00 0.00
20260505001511 80 0 5.0 18.0 0.00 0.00 0.00
20260505001010 80 355 9.0 19.0 0.00 0.00 0.00
20260505000511 80 359 8.0 19.0 0.00 0.00 0.00
20260505000014 80 0 4.0 12.0 0.00 0.00 0.00
20260504235513 80 358 6.0 17.0 0.00 0.00 0.00